| time (UTC) | temp F | wind direction | speed MPH | gust MPH | rain 1hr in | rain 24hr in | rain mn in | humidity % | barometer mb |
| 20260502231007 | 48 | 309 | 9.0 | 14.0 | 0.00 | 0.00 | 0.00 | 85 | 1008.9 |
| 20260502230508 | 48 | 294 | 12.0 | 16.0 | 0.00 | 0.00 | 0.00 | 84 | 1008.9 |
| 20260502225508 | 48 | 274 | 7.0 | 16.0 | 0.00 | 0.00 | 0.00 | 84 | 1009.0 |
| 20260502225007 | 48 | 292 | 7.0 | 14.0 | 0.00 | 0.00 | 0.00 | 84 | 1009.0 |
| 20260502224508 | 48 | 291 | 10.0 | 14.0 | 0.00 | 0.00 | 0.00 | 85 | 1009.0 |
| 20260502224008 | 48 | 298 | 8.0 | 12.0 | 0.00 | 0.00 | 0.00 | 85 | 1008.9 |
| 20260502223508 | 48 | 302 | 7.0 | 12.0 | 0.00 | 0.00 | 0.00 | 85 | 1008.9 |
| 20260502223012 | 48 | 293 | 7.0 | 12.0 | 0.00 | 0.00 | 0.00 | 85 | 1008.9 |
| 20260502222508 | 48 | 299 | 7.0 | 10.0 | 0.00 | 0.00 | 0.00 | 85 | 1008.8 |
| 20260502222007 | 48 | 313 | 7.0 | 9.0 | 0.00 | 0.00 | 0.00 | 85 | 1008.7 |
| 20260502221508 | 48 | 311 | 6.0 | 9.0 | 0.00 | 0.00 | 0.00 | 85 | 1008.7 |
| 20260502221007 | 48 | 309 | 6.0 | 9.0 | 0.00 | 0.00 | 0.00 | 84 | 1008.8 |
| 20260502220508 | 48 | 311 | 7.0 | 10.0 | 0.00 | 0.00 | 0.00 | 84 | 1008.9 |
| 20260502220011 | 48 | 304 | 6.0 | 10.0 | 0.00 | 0.00 | 0.00 | 84 | 1008.9 |
| 20260502215508 | 49 | 305 | 7.0 | 10.0 | 0.00 | 0.00 | 0.00 | 84 | 1008.8 |
| 20260502215008 | 49 | 302 | 8.0 | 12.0 | 0.00 | 0.00 | 0.00 | 84 | 1008.8 |
| 20260502214508 | 49 | 308 | 6.0 | 12.0 | 0.00 | 0.00 | 0.00 | 84 | 1008.7 |
| 20260502214007 | 49 | 304 | 7.0 | 10.0 | 0.00 | 0.00 | 0.00 | 84 | 1008.8 |
| 20260502213508 | 49 | 303 | 6.0 | 9.0 | 0.00 | 0.00 | 0.00 | 84 | 1008.8 |
| 20260502212507 | 50 | 303 | 8.0 | 10.0 | 0.00 | 0.00 | 0.00 | 84 | 1008.9 |
| 20260502212008 | 50 | 303 | 8.0 | 12.0 | 0.00 | 0.00 | 0.00 | 84 | 1009.0 |
| 20260502211508 | 50 | 297 | 9.0 | 15.0 | 0.00 | 0.00 | 0.00 | 84 | 1008.9 |
| 20260502211008 | 50 | 298 | 9.0 | 13.0 | 0.00 | 0.00 | 0.00 | 84 | 1009.1 |
| 20260502210507 | 50 | 262 | 6.0 | 12.0 | 0.00 | 0.00 | 0.00 | 84 | 1009.1 |
| 20260502210011 | 50 | 299 | 5.0 | 7.0 | 0.00 | 0.00 | 0.00 | 84 | 1009.2 |
| 20260502205008 | 50 | 295 | 5.0 | 7.0 | 0.00 | 0.00 | 0.00 | 85 | 1009.1 |
| 20260502204508 | 50 | 272 | 5.0 | 8.0 | 0.00 | 0.00 | 0.00 | 85 | 1009.4 |
| 20260502204007 | 50 | 278 | 5.0 | 8.0 | 0.00 | 0.00 | 0.00 | 85 | 1009.3 |
| 20260502203507 | 50 | 286 | 4.0 | 6.0 | 0.00 | 0.00 | 0.00 | 85 | 1009.3 |
| 20260502203011 | 50 | 296 | 3.0 | 5.0 | 0.00 | 0.00 | 0.00 | 85 | 1009.3 |
| 20260502202007 | 50 | 308 | 2.0 | 3.0 | 0.00 | 0.00 | 0.00 | 85 | 1009.2 |
| 20260502201508 | 50 | 308 | 3.0 | 5.0 | 0.00 | 0.00 | 0.00 | 85 | 1009.2 |
| 20260502200507 | 50 | 324 | 4.0 | 8.0 | 0.00 | 0.00 | 0.00 | 84 | 1009.2 |
| 20260502200011 | 50 | 303 | 5.0 | 9.0 | 0.00 | 0.00 | 0.00 | 84 | 1009.2 |
| 20260502195507 | 50 | 306 | 7.0 | 9.0 | 0.00 | 0.00 | 0.00 | 84 | 1009.2 |
| 20260502195007 | 50 | 292 | 7.0 | 9.0 | 0.00 | 0.00 | 0.00 | 84 | 1009.2 |
| 20260502194507 | 50 | 291 | 5.0 | 8.0 | 0.00 | 0.00 | 0.00 | 84 | 1009.2 |
| 20260502194007 | 50 | 294 | 7.0 | 10.0 | 0.00 | 0.00 | 0.00 | 83 | 1009.1 |
| 20260502193507 | 50 | 290 | 8.0 | 12.0 | 0.00 | 0.00 | 0.00 | 83 | 1009.1 |
| 20260502193011 | 51 | 301 | 8.0 | 10.0 | 0.00 | 0.00 | 0.00 | 83 | 1009.0 |
| 20260502192507 | 51 | 298 | 7.0 | 10.0 | 0.00 | 0.00 | 0.00 | 82 | 1008.9 |
| 20260502192007 | 51 | 290 | 7.0 | 9.0 | 0.00 | 0.00 | 0.00 | 82 | 1009.0 |
| 20260502191507 | 51 | 293 | 6.0 | 8.0 | 0.00 | 0.00 | 0.00 | 82 | 1008.9 |
| 20260502190011 | 51 | 301 | 5.0 | 7.0 | 0.00 | 0.00 | 0.00 | 82 | 1008.8 |
| 20260502185507 | 51 | 290 | 3.0 | 6.0 | 0.00 | 0.00 | 0.00 | 82 | 1008.8 |
| 20260502185007 | 51 | 271 | 3.0 | 6.0 | 0.00 | 0.00 | 0.00 | 82 | 1008.9 |
| 20260502184507 | 51 | 299 | 5.0 | 7.0 | 0.00 | 0.00 | 0.00 | 82 | 1008.9 |
| 20260502184008 | 51 | 292 | 3.0 | 7.0 | 0.00 | 0.00 | 0.00 | 82 | 1009.0 |
| 20260502183011 | 51 | 281 | 5.0 | 9.0 | 0.00 | 0.00 | 0.00 | 81 | 1009.2 |
| 20260502182507 | 51 | 295 | 6.0 | 9.0 | 0.00 | 0.00 | 0.00 | 81 | 1009.1 |
| 20260502182007 | 51 | 297 | 5.0 | 8.0 | 0.00 | 0.00 | 0.00 | 81 | 1009.1 |
| 20260502181507 | 51 | 292 | 4.0 | 7.0 | 0.00 | 0.00 | 0.00 | 81 | 1009.1 |
| 20260502181007 | 51 | 293 | 3.0 | 6.0 | 0.00 | 0.00 | 0.00 | 81 | 1009.1 |
| 20260502164007 | 53 | 185 | 8.0 | 12.0 | 0.00 | 0.00 | 0.00 | 77 | 1009.2 |
| 20260502163507 | 53 | 181 | 5.0 | 8.0 | 0.00 | 0.00 | 0.00 | 77 | 1009.2 |
| 20260502163011 | 53 | 181 | 5.0 | 7.0 | 0.00 | 0.00 | 0.00 | 76 | 1009.1 |
| 20260502162507 | 53 | 197 | 5.0 | 6.0 | 0.00 | 0.00 | 0.00 | 76 | 1009.1 |
| 20260502161007 | 53 | 179 | 3.0 | 6.0 | 0.00 | 0.00 | 0.00 | 76 | 1009.3 |
| 20260502160507 | 54 | 185 | 4.0 | 7.0 | 0.00 | 0.00 | 0.00 | 76 | 1009.3 |
| 20260502152007 | 54 | 5 | 1.0 | 5.0 | 0.00 | 0.00 | 0.00 | 74 | 1010.3 |
| 20260502151507 | 54 | 156 | 3.0 | 5.0 | 0.00 | 0.00 | 0.00 | 73 | 1010.3 |
| 20260502151007 | 54 | 167 | 3.0 | 8.0 | 0.00 | 0.00 | 0.00 | 73 | 1010.4 |
| 20260502150506 | 54 | 156 | 6.0 | 9.0 | 0.00 | 0.00 | 0.00 | 72 | 1010.4 |
| 20260502130507 | 55 | 241 | 4.0 | 6.0 | 0.00 | 0.00 | 0.00 | 73 | 1011.1 |
| 20260502123010 | 54 | 171 | 5.0 | 8.0 | 0.00 | 0.00 | 0.00 | 72 | 1011.6 |
| 20260502122506 | 54 | 166 | 5.0 | 6.0 | 0.00 | 0.00 | 0.00 | 72 | 1011.8 |
| 20260502122007 | 54 | 186 | 3.0 | 7.0 | 0.00 | 0.00 | 0.00 | 71 | 1011.8 |
| 20260502121006 | 54 | 170 | 6.0 | 8.0 | 0.00 | 0.00 | 0.00 | 71 | 1011.8 |
| 20260502120506 | 54 | 174 | 6.0 | 9.0 | 0.00 | 0.00 | 0.00 | 70 | 1011.8 |
| 20260502115506 | 55 | 177 | 7.0 | 9.0 | 0.00 | 0.00 | 0.00 | 70 | 1011.8 |
| 20260502114506 | 55 | 178 | 7.0 | 9.0 | 0.00 | 0.00 | 0.00 | 69 | 1011.6 |
| 20260502114007 | 56 | 184 | 7.0 | 10.0 | 0.00 | 0.00 | 0.00 | 69 | 1011.5 |
| 20260502113506 | 56 | 174 | 7.0 | 10.0 | 0.00 | 0.00 | 0.00 | 69 | 1011.6 |
| 20260502113010 | 56 | 181 | 7.0 | 10.0 | 0.00 | 0.00 | 0.00 | 69 | 1011.5 |
| 20260502112506 | 56 | 176 | 7.0 | 9.0 | 0.00 | 0.00 | 0.00 | 68 | 1011.5 |
| 20260502112007 | 56 | 172 | 6.0 | 10.0 | 0.00 | 0.00 | 0.00 | 68 | 1011.7 |
| 20260502111507 | 56 | 175 | 7.0 | 10.0 | 0.00 | 0.00 | 0.00 | 68 | 1011.7 |
| 20260502111006 | 56 | 181 | 7.0 | 10.0 | 0.00 | 0.00 | 0.00 | 68 | 1011.6 |
| 20260502110010 | 56 | 172 | 7.0 | 10.0 | 0.00 | 0.00 | 0.00 | 69 | 1011.8 |
| 20260502104006 | 56 | 183 | 7.0 | 9.0 | 0.00 | 0.00 | 0.00 | 70 | 1011.9 |
| 20260502103010 | 56 | 172 | 7.0 | 9.0 | 0.00 | 0.00 | 0.00 | 71 | 1012.1 |
| 20260502102006 | 56 | 181 | 6.0 | 8.0 | 0.00 | 0.00 | 0.00 | 72 | 1011.9 |
| 20260502101506 | 56 | 187 | 6.0 | 8.0 | 0.00 | 0.00 | 0.00 | 72 | 1012.0 |
| 20260502100506 | 55 | 182 | 7.0 | 9.0 | 0.00 | 0.00 | 0.00 | 72 | 1012.1 |
| 20260502091006 | 54 | 175 | 6.0 | 8.0 | 0.00 | 0.00 | 0.00 | 77 | 1012.4 |
| 20260502090506 | 53 | 183 | 7.0 | 9.0 | 0.00 | 0.00 | 0.00 | 77 | 1012.4 |
| 20260502071509 | 50 | 181 | 4.0 | 6.0 | 0.00 | 0.00 | 0.00 | 79 | 1013.1 |
| 20260502070508 | 50 | 87 | 2.0 | 6.0 | 0.00 | 0.00 | 0.00 | 79 | 1013.1 |
| 20260502070012 | 50 | 81 | 3.0 | 6.0 | 0.00 | 0.00 | 0.00 | 79 | 1013.1 |
| 20260502065509 | 50 | 340 | 1.0 | 6.0 | 0.00 | 0.00 | 0.00 | 79 | 1012.9 |
| 20260502064508 | 49 | 117 | 3.0 | 7.0 | 0.00 | 0.00 | 0.00 | 79 | 1013.1 |
| 20260502064009 | 49 | 93 | 5.0 | 8.0 | 0.00 | 0.00 | 0.00 | 79 | 1013.0 |
| 20260502063509 | 48 | 90 | 2.0 | 6.0 | 0.00 | 0.00 | 0.00 | 78 | 1013.1 |
| 20260502063013 | 48 | 85 | 2.0 | 6.0 | 0.00 | 0.00 | 0.00 | 78 | 1013.1 |
| 20260502062509 | 48 | 97 | 3.0 | 7.0 | 0.00 | 0.00 | 0.00 | 78 | 1013.2 |
| 20260502062008 | 48 | 96 | 3.0 | 8.0 | 0.00 | 0.00 | 0.00 | 78 | 1013.2 |
| 20260502061509 | 47 | 90 | 3.0 | 7.0 | 0.00 | 0.00 | 0.00 | 78 | 1013.2 |
| 20260502061009 | 47 | 109 | 3.0 | 6.0 | 0.00 | 0.00 | 0.00 | 77 | 1013.2 |
| 20260502060508 | 47 | 110 | 2.0 | 5.0 | 0.00 | 0.00 | 0.00 | 77 | 1013.2 |
| 20260502060012 | 47 | 74 | 2.0 | 5.0 | 0.00 | 0.00 | 0.00 | 77 | 1013.2 |
| 20260502055510 | 47 | 121 | 2.0 | 5.0 | 0.00 | 0.00 | 0.00 | 78 | 1013.3 |
| 20260502054509 | 47 | 101 | 3.0 | 6.0 | 0.00 | 0.00 | 0.00 | 78 | 1013.3 |
| 20260502054008 | 47 | 72 | 3.0 | 6.0 | 0.00 | 0.00 | 0.00 | 78 | 1013.4 |
| 20260502053508 | 46 | 74 | 4.0 | 7.0 | 0.00 | 0.00 | 0.00 | 78 | 1013.3 |
| 20260502052508 | 46 | 80 | 5.0 | 6.0 | 0.00 | 0.00 | 0.00 | 77 | 1013.4 |
| 20260502052008 | 46 | 79 | 4.0 | 7.0 | 0.00 | 0.00 | 0.00 | 77 | 1013.5 |
| 20260502051509 | 46 | 88 | 4.0 | 6.0 | 0.00 | 0.00 | 0.00 | 77 | 1013.3 |
| 20260502051008 | 46 | 82 | 3.0 | 6.0 | 0.00 | 0.00 | 0.00 | 77 | 1013.3 |
| 20260502050508 | 46 | 76 | 4.0 | 7.0 | 0.00 | 0.00 | 0.00 | 77 | 1013.4 |
| 20260502050012 | 46 | 81 | 5.0 | 7.0 | 0.00 | 0.00 | 0.00 | 77 | 1013.4 |
| 20260502045508 | 46 | 75 | 5.0 | 8.0 | 0.00 | 0.00 | 0.00 | 77 | 1013.4 |
| 20260502045008 | 46 | 71 | 5.0 | 8.0 | 0.00 | 0.00 | 0.00 | 77 | 1013.4 |
| 20260502044508 | 46 | 81 | 5.0 | 8.0 | 0.00 | 0.00 | 0.00 | 77 | 1013.5 |
| 20260502044008 | 46 | 81 | 5.0 | 8.0 | 0.00 | 0.00 | 0.00 | 77 | 1013.5 |
| 20260502043508 | 46 | 73 | 5.0 | 8.0 | 0.00 | 0.00 | 0.00 | 77 | 1013.6 |
| 20260502043012 | 46 | 76 | 5.0 | 8.0 | 0.00 | 0.00 | 0.00 | 77 | 1013.6 |
| 20260502042508 | 46 | 69 | 4.0 | 7.0 | 0.00 | 0.00 | 0.00 | 77 | 1013.7 |
| 20260502042008 | 46 | 75 | 5.0 | 7.0 | 0.00 | 0.00 | 0.00 | 77 | 1013.7 |
| 20260502041508 | 46 | 64 | 4.0 | 8.0 | 0.00 | 0.00 | 0.00 | 77 | 1013.8 |
| 20260502041009 | 46 | 68 | 6.0 | 8.0 | 0.00 | 0.00 | 0.00 | 76 | 1013.8 |
| 20260502040508 | 46 | 86 | 4.0 | 7.0 | 0.00 | 0.00 | 0.00 | 76 | 1014.0 |
| 20260502040012 | 46 | 86 | 4.0 | 6.0 | 0.00 | 0.00 | 0.00 | 76 | 1014.1 |
| 20260502035508 | 46 | 84 | 5.0 | 7.0 | 0.00 | 0.00 | 0.00 | 76 | 1014.1 |
| 20260502035008 | 46 | 76 | 5.0 | 7.0 | 0.00 | 0.00 | 0.00 | 76 | 1014.0 |
| 20260502034508 | 46 | 73 | 5.0 | 8.0 | 0.00 | 0.00 | 0.00 | 76 | 1014.1 |
| 20260502034008 | 46 | 66 | 5.0 | 7.0 | 0.00 | 0.00 | 0.00 | 76 | 1014.1 |
| 20260502033508 | 46 | 58 | 5.0 | 7.0 | 0.00 | 0.00 | 0.00 | 76 | 1014.2 |
| 20260502033012 | 46 | 75 | 3.0 | 5.0 | 0.00 | 0.00 | 0.00 | 76 | 1014.3 |
| 20260502032008 | 46 | 72 | 2.0 | 3.0 | 0.00 | 0.00 | 0.00 | 76 | 1014.6 |
| 20260502031508 | 46 | 80 | 2.0 | 6.0 | 0.00 | 0.00 | 0.00 | 76 | 1014.7 |
| 20260502031008 | 46 | 81 | 3.0 | 5.0 | 0.00 | 0.00 | 0.00 | 76 | 1014.7 |
| 20260502030508 | 46 | 80 | 4.0 | 7.0 | 0.00 | 0.00 | 0.00 | 76 | 1014.8 |
| 20260502025508 | 46 | 86 | 3.0 | 6.0 | 0.00 | 0.00 | 0.00 | 76 | 1014.9 |
| 20260502024508 | 46 | 90 | 3.0 | 6.0 | 0.00 | 0.00 | 0.00 | 76 | 1015.0 |
| 20260502024008 | 46 | 89 | 4.0 | 6.0 | 0.00 | 0.00 | 0.00 | 76 | 1015.1 |
| 20260502023508 | 46 | 87 | 3.0 | 5.0 | 0.00 | 0.00 | 0.00 | 76 | 1015.2 |
| 20260502023012 | 46 | 100 | 2.0 | 3.0 | 0.00 | 0.00 | 0.00 | 76 | 1015.3 |
| 20260502022508 | 46 | 88 | 3.0 | 5.0 | 0.00 | 0.00 | 0.00 | 76 | 1015.4 |
| 20260502022008 | 46 | 64 | 2.0 | 6.0 | 0.00 | 0.00 | 0.00 | 76 | 1015.3 |
| 20260502021508 | 46 | 92 | 5.0 | 7.0 | 0.00 | 0.00 | 0.00 | 76 | 1015.5 |
| 20260502021007 | 47 | 90 | 5.0 | 7.0 | 0.00 | 0.00 | 0.00 | 76 | 1015.6 |
| 20260502020508 | 47 | 101 | 2.0 | 3.0 | 0.00 | 0.00 | 0.00 | 76 | 1015.9 |
| 20260502020012 | 47 | 81 | 2.0 | 3.0 | 0.00 | 0.00 | 0.00 | 76 | 1015.8 |
| 20260502015508 | 47 | 109 | 3.0 | 5.0 | 0.00 | 0.00 | 0.00 | 76 | 1015.8 |
| 20260502015008 | 47 | 90 | 3.0 | 5.0 | 0.00 | 0.00 | 0.00 | 76 | 1015.9 |
| 20260502014008 | 47 | 87 | 2.0 | 6.0 | 0.00 | 0.00 | 0.00 | 76 | 1016.1 |
| 20260502013508 | 47 | 86 | 5.0 | 7.0 | 0.00 | 0.00 | 0.00 | 76 | 1016.2 |
| 20260502013011 | 47 | 79 | 3.0 | 5.0 | 0.00 | 0.00 | 0.00 | 76 | 1016.3 |
| 20260502012508 | 47 | 354 | 1.0 | 2.0 | 0.00 | 0.00 | 0.00 | 76 | 1016.2 |
| 20260502012007 | 47 | 57 | 2.0 | 6.0 | 0.00 | 0.00 | 0.00 | 76 | 1016.3 |
| 20260502011008 | 47 | 90 | 3.0 | 6.0 | 0.00 | 0.00 | 0.00 | 76 | 1016.4 |
| 20260502010011 | 47 | 87 | 4.0 | 6.0 | 0.00 | 0.00 | 0.00 | 76 | 1016.5 |
| 20260502005007 | 47 | 91 | 5.0 | 7.0 | 0.00 | 0.00 | 0.00 | 77 | 1016.6 |
| 20260502004007 | 47 | 80 | 5.0 | 6.0 | 0.00 | 0.00 | 0.00 | 77 | 1016.9 |
| 20260502003507 | 47 | 81 | 5.0 | 6.0 | 0.00 | 0.00 | 0.00 | 77 | 1017.0 |
| 20260502003011 | 47 | 77 | 5.0 | 6.0 | 0.00 | 0.00 | 0.00 | 77 | 1017.0 |
| 20260502002508 | 47 | 75 | 2.0 | 6.0 | 0.00 | 0.00 | 0.00 | 77 | 1017.0 |
| 20260502002007 | 47 | 76 | 3.0 | 5.0 | 0.00 | 0.00 | 0.00 | 77 | 1017.0 |
| 20260502001507 | 47 | 83 | 3.0 | 6.0 | 0.00 | 0.00 | 0.00 | 76 | 1016.9 |
| 20260502001008 | 47 | 73 | 5.0 | 7.0 | 0.00 | 0.00 | 0.00 | 77 | 1017.0 |
| 20260502000508 | 47 | 77 | 4.0 | 6.0 | 0.00 | 0.00 | 0.00 | 77 | 1017.2 |
| 20260502000011 | 47 | 82 | 3.0 | 6.0 | 0.00 | 0.00 | 0.00 | 77 | 1017.4 |
| 20260501235508 | 47 | 77 | 3.0 | 5.0 | 0.00 | 0.00 | 0.00 | 77 | 1017.5 |
| 20260501235008 | 47 | 86 | 4.0 | 7.0 | 0.00 | 0.00 | 0.00 | 76 | 1017.5 |
| 20260501234508 | 47 | 63 | 5.0 | 7.0 | 0.00 | 0.00 | 0.00 | 76 | 1017.7 |
| 20260501233508 | 47 | 78 | 5.0 | 8.0 | 0.00 | 0.00 | 0.00 | 77 | 1017.9 |
| 20260501233011 | 47 | 82 | 5.0 | 7.0 | 0.00 | 0.00 | 0.00 | 77 | 1017.9 |